﻿STRMGAGEID,DATE_TIME,AVG_DISCHARGE,STDDEV_DISCHARGE,MIN_DISCHARGE,MAX_DISCHARGE,N_DISCHARGE,TDAILY_DISCHARGE,AVG_TEMP,STDDEV_TEMP,MIN_TEMP,MAX_TEMP,N_TEMP,AVG_COND,STDDEV_COND,MIN_COND,MAX_COND,N_COND
aiken_f5,12/4/90,0.1,0.1,0,0.23,17,1071,,,,,0,,,,,0
aiken_f5,12/8/90,1.1,0.4,0.4,1.47,7,6930,,,,,0,,,,,0
aiken_f5,12/9/90,2.2,0.7,1.16,3.82,96,190062,3.9,3.1,0.3,9.8,95,197.3,17.6,167.39,240.1,95
aiken_f5,12/10/90,4.8,1.6,2.18,9.8,96,411516,3.8,3,0,8.8,96,163.8,6.4,155.89,180,96
aiken_f5,12/11/90,5.7,2,3.82,9.17,96,492750,5.5,3.4,0.5,9.9,96,158.7,6.9,148.6,172.6,96
aiken_f5,12/12/90,16.4,5.6,6.85,23.9,96,1413810,4,2.4,0.3,8.8,96,147,4.5,140.7,156.6,96
aiken_f5,12/13/90,14.5,3.2,9.17,21.41,96,1250145,5.5,3.8,0.1,12.5,96,155.6,7.2,145.39,168.3,96
aiken_f5,12/14/90,8,4.5,2.58,20.59,96,691353,3.3,2.6,0,7.9,96,165.5,7.5,155.3,177.6,96
aiken_f5,12/15/90,1.5,0.9,0.4,4.3,96,131175,5.6,3.4,0.7,11.5,96,190.9,8,177.6,204.8,96
aiken_f5,12/16/90,13.1,5.4,4.3,23.9,96,1131606,4.5,2.9,0.7,10.1,96,179.2,5.1,174.5,192.89,96
aiken_f5,12/17/90,30.3,8.1,22.23,57.12,96,2618316,6.7,4.3,0.9,14.1,96,180.1,5.4,171.39,189.2,96
aiken_f5,12/18/90,129.5,29,59.44,183.58,96,11187045,4.9,2,1.8,7.9,96,160.3,21.2,122.6,193.7,96
aiken_f5,12/19/90,94,29.6,57.12,143.88,96,8120484,3.6,2,0.7,7.3,96,117,3.3,109,124,96
aiken_f5,12/20/90,55.3,7.2,46.04,67.79,96,4776633,6.2,3,2.3,11.4,96,111.2,4.3,106.3,117.9,96
aiken_f5,12/21/90,61.7,7.9,49.27,77.79,96,5327415,6.4,2.9,2,10.7,96,119.9,4.2,112.6,125.7,96
aiken_f5,12/22/90,63.5,8.6,48.2,79.09,96,5490684,5.6,3.2,1.5,10.6,96,127,3.9,121.3,138.6,96
aiken_f5,12/23/90,55.7,9,40.8,71.5,96,4813344,6.4,3.3,1.3,11.2,96,128.8,3.8,124,136,96
aiken_f5,12/24/90,45.1,18.4,15.94,67.79,96,3896127,2.2,0.7,0.5,3.9,96,131.8,2.8,128.1,136,96
aiken_f5,12/25/90,22.1,14.1,7.99,49.27,96,1913544,7,4.3,0,12.5,96,138.1,4.7,130.6,145.3,96
aiken_f5,12/26/90,95.5,37.1,51.48,237.72,96,8249373,7.2,2.8,2.9,11,96,130.7,3.1,123.3,135.89,96
aiken_f5,12/27/90,97.7,45.5,43.61,176.56,96,8443449,4.5,1.2,2.7,6.8,96,116.7,1.9,114.6,121.4,96
aiken_f5,12/28/90,34.9,3.3,30.89,42.53,96,3013209,5.1,2.7,0.6,10.3,96,118,2.8,114.6,122.6,96
aiken_f5,12/29/90,37.4,2.3,33.58,41.48,96,3232755,4.7,3.1,0.7,10.9,96,118.8,2.9,113.3,123.9,96
aiken_f5,12/30/90,57.3,21.2,34.52,102.2,96,4948272,7,3.2,1.7,11.2,96,118.4,4.3,112.6,130.6,96
aiken_f5,12/31/90,135.7,16.8,105.06,181.23,96,11724660,6.9,2.9,3.1,11,96,113.9,1.8,110.6,117.3,96
aiken_f5,1/1/91,189.1,39.7,149.94,300.16,96,16337439,7.1,2.4,3.4,10.3,96,110.4,2.8,107.9,117.3,96
aiken_f5,1/2/91,239.3,37.8,199.13,432,96,20678778,7.2,2,4,10.1,96,105.8,3.1,102.6,114.6,96
aiken_f5,1/3/91,156.2,36.4,117.26,239.31,96,13497651,5.3,1.3,3.4,8.2,96,101.4,2.5,96,106.7,96
aiken_f5,1/4/91,107,15.6,81.27,141.22,96,9246087,6,2.1,3.4,10,96,99.9,3.4,96,107.9,96
aiken_f5,1/5/91,91.2,28.5,59.18,143.99,96,7875486,6.7,3.5,1.9,11.7,96,105.1,10.2,93.4,126.6,96
aiken_f5,1/6/91,81.5,37,43.13,141.22,96,7041033,5.1,2,1.6,8.7,96,109.9,5.6,102.7,120.7,96
aiken_f5,1/7/91,31.8,6.4,24.69,43.13,96,2750337,6,4,0.6,12.3,96,119.2,3.3,113.4,127.3,96
aiken_f5,1/8/91,92.3,32.5,40.07,164.61,96,7977411,6.5,3.2,1.8,11,96,128.6,5.7,118.7,138.6,96
aiken_f5,1/9/91,108.5,51.7,37.15,177.86,96,9372141,3.6,1.4,1.1,6.7,96,121.2,2.4,114.7,124.8,96
aiken_f5,1/10/91,31.7,9.8,16.65,45.22,96,2741940,5.8,4.2,0,11.5,96,122.9,4.3,115.3,131.3,96
aiken_f5,1/11/91,83.8,33.3,45.22,149.66,96,7243470,6.7,3.2,1.7,10.9,96,119.4,3.6,114.6,129.3,96
aiken_f5,1/12/91,166.1,14.6,149.66,210.64,96,14348457,6.7,2.4,3.5,10.7,96,113,2.6,107.9,117.3,96
aiken_f5,1/13/91,153.3,42.8,48.51,218.58,96,13248342,3.6,2.4,0,8.3,96,111.5,2.1,108,116,96
aiken_f5,1/14/91,26,7.6,18.18,48.51,96,2246166,1,1,0,3.1,96,116,3.8,109.1,122.4,96
aiken_f5,1/15/91,12.9,4.1,4.81,23.87,96,1114497,0,0,0,0,1,122.4,0,122.4,122.4,1
aiken_f5,1/16/91,12.2,0,12.2,12.2,1,10980,,,,,0,,,,,0
aiken_f5,1/17/91,21.2,11.6,7.36,39.08,95,1816380,5.2,4.2,0,11.3,95,139.9,4.8,130.3,154.3,95
aiken_f5,1/18/91,28.7,5.6,19.79,37.15,96,2478618,5.5,4,0,10.7,96,134.3,2.5,129,139.6,96
aiken_f5,1/19/91,27.5,1.7,22.29,29.08,96,2379726,5.5,3.2,0.3,10.3,96,131.3,3.9,125,137,96
aiken_f5,1/20/91,14.4,4,10.22,26.39,96,1244070,3.8,3.2,0,10.2,96,130.6,3.9,125,137.1,96
aiken_f5,1/21/91,8.4,1.8,3.91,13.08,96,722124,1.7,0,1.7,1.7,1,137,0,137,137,1
aiken_f5,1/22/91,25.4,14.3,9.6,47.4,96,2191509,,,,,0,,,,,0
aiken_f5,1/23/91,32,7.8,20.64,44.17,96,2762568,,,,,0,,,,,0
aiken_f5,1/24/91,19.8,15.5,2.49,61.73,96,1710027,,,,,0,,,,,0
aiken_f5,1/25/91,2.3,1.4,0,4.81,96,199233,,,,,0,,,,,0
aiken_f5,1/26/91,5.2,6.4,0.57,38.11,96,447624,,,,,0,,,,,0
aiken_f5,1/27/91,5.2,2.6,1.42,10.22,96,448245,,,,,0,,,,,0
aiken_f5,1/28/91,8.9,7.5,0.57,23.08,96,767871,,,,,0,,,,,0
aiken_f5,1/29/91,12.1,5.6,2.49,21.52,96,1047168,,,,,0,,,,,0
aiken_f5,1/30/91,8.2,2.6,3.91,13.08,96,709965,,,,,0,,,,,0
aiken_f5,1/31/91,4.5,1.8,1.64,7.36,96,390564,,,,,0,,,,,0
aiken_f5,2/1/91,4.8,2.7,0.57,9.6,96,412515,,,,,0,,,,,0
aiken_f5,2/2/91,5.7,2.3,1.9,10.22,96,490212,,,,,0,,,,,0
aiken_f5,2/3/91,3.4,2.4,0,7.36,96,291690,,,,,0,,,,,0
aiken_f5,2/4/91,1.3,1,0,3.17,96,109773,,,,,0,,,,,0
aiken_f5,2/5/91,0.8,0.8,0,2.49,96,72630,,,,,0,,,,,0
aiken_f5,2/6/91,0,0,0,0,1,0,,,,,0,,,,,0
aiken_f5,12/8/91,77.2,53.3,0,161.41,95,6599295,3.4,2.2,1.1,7.5,95,,,,,0
aiken_f5,12/9/91,250.6,59.6,161.41,386.44,96,21652479,4.3,2.2,0.9,7.4,96,119.2,9.7,99.5,139.2,95
aiken_f5,12/10/91,222.1,38.2,161.41,275.54,96,19185498,4.8,1.8,2.7,8,96,73.9,7.5,64.1,98.2,96
aiken_f5,12/11/91,158,80,60.46,303.13,96,13649112,5.7,2.5,2.2,9.4,96,65.5,3.9,60.5,72,96
aiken_f5,12/12/91,278.8,75,152.53,393.45,96,24086727,5.5,1.2,3.6,7.8,96,75.3,5.1,67.7,87.3,96
aiken_f5,12/13/91,154.4,72.3,78.15,327.26,96,13339035,3.4,0.9,1.1,4.4,96,79.7,8.4,67.2,91.7,96
aiken_f5,12/14/91,51.5,21.6,28.18,107.6,96,4450329,4.6,2.7,0.9,9.1,96,89.7,2,85.2,92.6,96
aiken_f5,12/15/91,146.9,66.2,70.03,257.01,96,12694950,5,2.3,2.1,8.7,96,86.1,3.4,78.7,91.4,96
aiken_f5,12/16/91,72.4,53.6,30.87,222.63,96,6258330,3.9,1.9,1.6,7.4,96,96.3,17,76.5,127.3,96
aiken_f5,12/17/91,37.3,13.4,19.79,70.03,96,3222162,5.3,3.2,1.3,10,96,103.8,2.4,100.5,108.6,96
aiken_f5,12/18/91,48.6,16.7,30.02,81.27,96,4195755,4.3,1.2,2.4,6.5,96,100.5,3.1,96,106.2,96
aiken_f5,12/19/91,32,13.7,9,48.51,96,2768229,4.1,2.7,1,11.4,96,96.1,3.7,88.8,103.3,96
aiken_f5,12/20/91,5.3,2.6,1.42,10.22,96,461790,1.2,0.6,0.1,2.5,96,103.1,0,103.1,103.1,1
aiken_f5,12/21/91,0.4,0.5,0,2.83,96,30591,1.5,1.3,0.1,4.2,96,,,,,0
aiken_f5,12/22/91,0.2,0.6,0,3.17,96,14778,2.5,2.3,0,8.8,96,,,,,0
aiken_f5,12/23/91,0,0,0,0,96,0,2.2,1.5,0.3,4.9,96,,,,,0
aiken_f5,12/24/91,0.8,0.8,0,2.15,96,70137,1.8,0.4,0.5,2.5,96,,,,,0
aiken_f5,12/25/91,1.4,0,1.42,1.42,1,1278,1.9,1.3,0.3,4.7,96,,,,,0
aiken_f5,12/26/91,104.7,148.1,0,346.2,95,8955981,4.8,0,4.8,4.8,1,,,,,0
aiken_f5,12/27/91,141.3,69.8,81.27,327.26,96,12211713,4.6,1,2.7,6.4,95,85.2,2.9,79.6,93.6,95
aiken_f5,12/28/91,56.4,24.4,31.72,122.36,96,4877046,4.6,2.4,1.4,8.7,96,79.4,0.8,77.4,80.8,96
aiken_f5,12/29/91,159.4,131.7,51.93,393.45,96,13772682,6.3,2.7,2.3,10.4,96,78.5,1.8,74.4,83.8,96
aiken_f5,12/30/91,304.4,66.5,181.28,386.44,96,26295993,5.9,1.4,3.6,7.9,96,76.1,3.7,71.7,82.8,96
aiken_f5,12/31/91,167.2,81.9,84.47,352.69,96,14443902,4.7,1,3.5,6.9,96,84.1,5.7,73.5,91.1,96
aiken_f5,1/1/92,61.7,35.7,31.72,146.82,96,5333706,3,0.7,2.1,4.6,96,88.4,2,83.1,90.7,96
aiken_f5,1/2/92,142.4,142.7,30.02,372.67,96,12304629,6.1,2.8,2,10.4,96,88.3,3.3,80.4,92.3,96
aiken_f5,1/3/92,142.3,88.4,72.21,352.69,96,12297573,5.1,0.9,3.4,6.9,96,84.6,1.8,82.3,90.4,96
aiken_f5,1/4/92,46.3,10.1,32.59,72.21,96,3999060,4.6,1.8,2.5,8.1,96,85.7,1.3,84.4,91.2,96
aiken_f5,1/5/92,40.9,24.7,14.53,112.33,96,3532005,6.9,3.5,2.2,11.7,96,90.5,3.7,85.9,97.9,96
aiken_f5,1/6/92,67.9,22.1,23.08,112.33,96,5865030,5.2,1.6,1.1,7.6,96,90.7,2,87.4,93.6,96
aiken_f5,1/7/92,121.9,89.7,44.17,321.09,96,10530342,5.5,3.2,0.7,9.7,96,97.1,3.6,92.7,105.2,96
aiken_f5,1/8/92,94.6,79,20.64,309.04,96,8175654,3.4,1.2,0.8,4.9,96,96.8,2.7,92.3,102.1,96
aiken_f5,1/9/92,7.9,4,3.17,19.79,96,679518,1.8,1.3,0.1,4.7,96,105.4,2.3,101.8,112.6,96
aiken_f5,1/10/92,3.8,1,2.49,5.27,96,326142,4.7,3.4,0,10.2,96,111.4,4.7,104.8,119.9,96
aiken_f5,1/11/92,7.7,2.8,2.49,11.58,96,661266,1.6,0.9,0.1,3.8,96,113,5,106.9,121.8,96
aiken_f5,1/12/92,3.4,1,1.13,5.72,96,291744,2.3,1.8,0.2,5.4,96,116.6,9.5,106,134.89,96
aiken_f5,1/13/92,2.2,0,2.15,2.15,1,1935,0.8,0,0.8,0.8,1,119.4,0,119.4,119.4,1
aiken_f5,1/17/92,13.6,9,4.81,37.15,95,1161333,3,2.9,0.2,8.2,95,138.4,17,119.4,178.5,95
aiken_f5,1/18/92,3.6,1,1.64,6.23,96,309186,3.3,1.2,0.8,6.1,96,140,5,132.6,147.5,96
aiken_f5,1/19/92,1.6,0.8,1.13,5.72,96,140661,0.7,0,0.7,0.7,1,145.6,0,145.6,145.6,1
aiken_f5,1/20/92,1.1,0,1.13,1.13,1,1017,,,,,0,,,,,0
aiken_f5,12/19/93,21.9,1.2,19.34,23.62,53,1044432,3.9,0.9,1.8,5.1,53,159.5,6.8,152.39,173.1,53
aiken_f5,12/20/93,17.1,1.5,14.02,23.62,96,1477575,2.5,2.4,0,7.2,96,150.1,1.6,147.1,153.1,96
aiken_f5,12/21/93,8.6,6.5,3.6,29.28,96,742572,0.1,0.2,0,0.6,96,164.6,12.3,146.1,181.7,96
aiken_f5,12/22/93,4.9,1.4,2.86,7.48,96,424080,1.3,1.7,0,5.7,96,147.6,12.5,133.5,168.3,96
aiken_f5,12/23/93,4,1.1,2.52,10.59,96,344574,3.4,3.2,0,8.6,96,153.9,4.3,142.1,163.89,96
aiken_f5,12/24/93,6.4,2.5,2.52,11.69,96,550467,4.4,3.5,0,9.4,96,152,4.9,144.7,164.7,96
aiken_f5,12/25/93,7.9,1.6,5.64,10.59,96,686034,5,3.7,0,10.3,96,145.5,3.2,139.6,152.7,96
aiken_f5,12/26/93,6.3,1.6,2.86,10.59,96,540864,4.3,3.6,0,10.1,96,146.1,5,136.7,153.3,96
aiken_f5,12/27/93,4.5,1.2,3.23,6.99,96,386541,4.2,3.5,0,9.7,96,150.1,3.1,142.5,155.89,96
aiken_f5,12/28/93,3.8,1,2.52,6.99,96,328563,2.9,2.3,0,7.1,96,149.1,3,141.6,154.1,96
aiken_f5,12/29/93,1.7,0.4,0.93,2.86,96,146727,3.4,2.5,0.1,7.7,96,159.4,8,146.3,177.89,96
aiken_f5,12/30/93,2.8,2.9,0.93,9.51,96,239436,4.8,3.4,0.1,9.8,96,169.7,8.2,157.6,190.2,96
aiken_f5,12/31/93,6.2,2.2,3.6,10.05,96,539019,5,3.7,0,10.2,96,158.4,3.5,151.2,165.2,96
aiken_f5,1/1/94,7.1,2.7,4.36,12.26,96,613125,5.9,4.2,0,11.9,96,156.5,3.5,151.3,165.6,96
aiken_f5,1/2/94,13.6,6.9,6.99,26.39,96,1173024,7.1,3.5,1.9,12.7,96,152.7,1.9,149.3,158.3,96
aiken_f5,1/3/94,25.9,4.8,18.52,33.56,96,2239002,5.2,2.4,0.9,8.1,96,146.3,2.6,140,149.5,96
aiken_f5,1/4/94,22.7,5.1,15.89,31.29,96,1964745,5.6,3.2,0.8,10.4,96,143.6,1.5,141.3,146.7,96
aiken_f5,1/5/94,23.5,3.8,18.52,29.28,96,2032245,5.9,3.8,0.2,10.9,96,139.1,1.4,136.7,141.7,96
aiken_f5,1/6/94,34.2,3.9,27.33,41.14,96,2955384,4.9,2.5,1,9,96,132.1,2.4,129.1,137.8,96
aiken_f5,1/7/94,43.1,7.4,32.34,58.13,96,3726432,4.7,3.2,0.2,9.1,96,139.4,4.7,134.3,147.8,96
aiken_f5,1/8/94,42,5.1,32.34,51.45,96,3628593,5,3.5,0.1,9.6,96,153.3,4.6,146.3,162.3,96
aiken_f5,1/9/94,37.2,2,33.56,41.14,96,3217923,5.5,3.6,0.2,10.6,96,164.5,2.6,161.3,168.8,96
aiken_f5,1/10/94,46.4,7.7,35,58.13,96,4009698,5.7,3.4,0.8,11,96,167,1.1,164.8,168.8,96
aiken_f5,1/11/94,56,19,41.14,147.45,96,4842369,4.6,3.2,0,9,96,166.9,1.5,164.2,169.2,96
aiken_f5,1/12/94,43.5,3.4,36.47,49.64,96,3756249,5.1,3,1.3,9.3,96,168.7,2.6,164.8,175.3,96
aiken_f5,1/13/94,39.2,5.2,31.29,53.49,96,3390291,5.2,4.2,0,12.8,96,174.7,1.9,171.6,178.5,96
aiken_f5,1/14/94,39.7,6.9,25.46,51.45,96,3426660,2.6,1.6,0.3,5.3,96,171.9,2.1,168.5,176,96
aiken_f5,1/15/94,14.3,5.1,7.99,25.46,96,1234539,4,3.4,0,10.6,96,173.9,3.7,170.1,183.3,96
aiken_f5,1/16/94,10.6,3.5,3.23,21.86,96,912843,2.5,1.9,0,6.2,96,174.2,8.7,163.8,187.8,96
aiken_f5,1/17/94,10,3.4,3.96,21.86,96,866511,5.3,4.3,0,12.4,96,172.6,6.7,159.8,180.3,96
aiken_f5,1/18/94,8.8,1.4,6.09,12.26,96,764163,4.9,3.4,0,9.6,96,177,3,171.2,184,96
aiken_f5,1/19/94,14.3,4.1,6.99,21.01,96,1234566,4.6,3.5,0,10.5,96,172,5.2,164.7,184.5,96
aiken_f5,1/20/94,13.1,4.1,8.47,24.52,96,1132731,2.8,2.5,0,8.3,96,168.7,7.4,157,186.2,96
aiken_f5,1/21/94,5.7,2.3,2.21,11.13,96,491157,3.2,3.5,0,9.1,96,177.4,10.7,162.8,201.5,96
aiken_f5,1/22/94,3.2,0.8,1.9,4.79,96,272916,2.6,2.8,0,8.2,96,188.3,19.9,164.3,231.1,96
aiken_f5,1/23/94,5.4,2,2.21,10.59,96,463581,3.7,3.5,0,10.3,96,181.2,8.5,172.6,206.7,96
aiken_f5,1/24/94,6.8,2.9,3.23,18.52,96,589797,2.6,2.8,0,8,96,177.2,18.7,157.3,214.8,96
aiken_f5,1/25/94,4.3,1.2,2.21,8.47,96,368802,2.6,3.1,0,9.8,96,177.3,8.9,167,203.3,96
aiken_f5,1/26/94,1.9,1,0.74,5.64,96,167895,1.8,1.7,0,6,96,206.2,43,138.3,265,96
aiken_f5,1/27/94,1.3,0.4,0.74,2.21,96,114183,3.1,2.8,0,10.9,96,207.8,32.4,140.8,257.2,96
aiken_f5,1/28/94,1,0.2,0.74,1.13,7,6237,1,0.2,0.7,1.1,7,218.2,4.9,211.3,224.7,7
aiken_f5,12/23/94,0.1,0,0,0.11,29,2367,1.3,0.7,0.5,3.5,35,121.6,15.7,102.3,163.3,35
aiken_f5,12/24/94,0,0,0,0.31,52,1629,2.3,1.1,0.6,4.3,96,166.1,20.5,80,206.39,96
aiken_f5,12/25/94,0.1,0.2,0,0.96,96,9846,2.4,1.1,0.7,4.3,96,157.4,14.7,118.7,190.2,96
aiken_f5,12/26/94,0.5,0.5,0.2,2.04,96,47223,2.7,1.6,0.5,6,96,169.7,46.8,100.9,243.8,96
aiken_f5,12/27/94,0.9,0.8,0.11,3.03,96,77166,3.7,1.8,0.8,6.6,96,120.8,21.9,88.8,155.1,96
aiken_f5,12/28/94,0.1,0,0,0.31,96,11241,1.7,0.8,0.6,3.5,96,137.4,11.6,101.5,152.7,96
aiken_f5,12/29/94,0.1,0.1,0.06,0.25,96,12474,2.2,1.1,0.6,4.2,96,132.7,29.6,78.9,167.8,96
aiken_f5,12/30/94,0.2,0.1,0.11,0.37,96,18648,2.6,1.5,0.4,5.1,96,90.1,8.5,78.2,105,96
aiken_f5,12/31/94,0.1,0,0.11,0.2,96,10881,1.8,1.1,0.4,4.3,96,97.6,7.1,87.8,116.8,96
aiken_f5,1/1/95,0.2,0.1,0.11,0.37,96,16227,3.1,1.6,0.6,5.8,96,102,22.1,75.6,139.6,96
aiken_f5,1/2/95,0.2,0.1,0.11,0.37,96,17991,3.1,1.9,0.4,6.1,96,93.5,9.5,78.2,116,96
aiken_f5,1/3/95,0.1,0.1,0.06,0.37,13,1620,1.3,0.6,0.5,2.7,96,154.2,18.8,99.3,169.39,96
aiken_f5,1/4/95,,,,,0,,1.4,1.2,0.3,3.9,96,150.3,8.5,135.2,166.1,96
aiken_f5,1/5/95,3.2,0.7,1.44,4.59,95,277650,2.3,1.7,0.3,5.3,96,151.2,9.5,138.2,170.2,96
aiken_f5,1/6/95,2.3,0.9,0.37,3.77,96,201861,1.5,1.2,0.1,4.6,96,148.9,11.4,135.2,173.1,96
aiken_f5,1/7/95,1.5,1.1,0.25,3.4,96,133254,2.7,2.3,0.2,6.2,96,155.9,19.3,135.7,193.39,96
aiken_f5,1/8/95,5,2.6,2.35,9.77,96,428040,4,2.5,0.3,7.2,96,138.7,7,125.7,148.1,96
aiken_f5,1/9/95,10.2,3.4,4.16,16.2,96,881514,3.9,2.5,0.2,7.5,96,132.3,2,126.9,136.1,96
aiken_f5,1/10/95,16.2,2.6,12.54,20.59,96,1399815,4.4,2.8,0.2,8.3,96,144.2,4.1,135.1,150.8,96
aiken_f5,1/11/95,16.1,2.6,10.31,24.98,96,1392048,4,2.6,0.3,8.2,96,155.9,3.1,150.39,162.5,96
aiken_f5,1/12/95,13.2,2.4,8.24,17.47,96,1139337,1.7,1.2,0.3,4.3,96,164.3,2.6,159.1,169.7,96
aiken_f5,1/13/95,5.5,2,3.4,14.95,96,477990,2.4,2,0.2,7,96,169.8,12.3,154,199,96
aiken_f5,1/14/95,3.2,1.1,0.62,7.73,96,277200,3.3,2.7,0.2,8.2,96,172.6,12.9,159.1,198.1,96
aiken_f5,1/15/95,2.6,0.8,0.62,3.77,96,225648,3.7,2.8,0.3,8.4,96,178.3,5.5,171.8,194.2,96
aiken_f5,1/16/95,1.8,0.7,0.62,3.03,96,154710,3.3,2.6,0.4,8,96,185.4,5,177.89,198.7,96
aiken_f5,1/17/95,1.7,0.8,0.62,3.03,96,142695,4.1,3.2,0.3,8.5,96,197.1,7,186.8,214.1,96
aiken_f5,1/18/95,2,1.1,0.37,4.16,96,171972,3.6,2.9,0.5,8.3,96,197.7,14.9,182.7,226.6,96
aiken_f5,1/19/95,3.1,1.3,0.62,5.41,96,263529,2.4,1.9,0.4,6.3,96,193.9,14.2,175.8,223.1,96
aiken_f5,1/20/95,2.5,0.9,0.25,4.16,96,217647,3.5,3,0.3,8.6,96,196.3,10.1,185.3,217.5,96
aiken_f5,1/21/95,1.7,1,0.31,3.77,96,144936,3.3,2.8,0.4,7.9,96,202,15.2,183.3,230.7,96
aiken_f5,1/22/95,2.2,1.2,0.2,3.77,96,185904,2.6,2.1,0.4,6.6,96,204.3,19,186.39,254.2,96
aiken_f5,1/23/95,2.7,0.8,0.96,4.16,96,234135,2.8,2.5,0.3,7.9,96,198.9,13.6,183.8,224.2,96
aiken_f5,1/24/95,2.2,1,0.37,3.77,96,191457,2.4,2.3,0.3,7.1,96,202.5,20.9,179,243.3,96
aiken_f5,1/25/95,1.8,1.2,0.31,4.16,96,157572,2.9,2.5,0.3,7.6,96,203.5,18.2,184.7,240.5,96
aiken_f5,1/26/95,2.3,1.3,0.31,4.59,96,200016,2.3,1.9,0.3,5.9,96,205.6,18.8,187.6,248.1,96
aiken_f5,1/27/95,2,1,0.31,3.4,96,172683,3.1,2.7,0.4,7.6,96,206.2,12.2,192.5,236.2,96
aiken_f5,1/28/95,0.9,0.7,0.2,2.35,96,79587,0.9,0.5,0.4,2.4,96,216.5,15.8,200.7,245.89,96
aiken_f5,1/29/95,0.6,0.6,0.06,2.04,96,49860,3,2,0.4,6.1,96,231.6,51.2,138.39,314.29,96
aiken_f5,1/30/95,0.2,0.1,0,0.62,96,13689,2.9,1.9,0.5,6.2,96,227.2,47,145.39,301.7,96
aiken_f5,1/31/95,0.1,0.1,0,0.25,89,5436,2.8,1.8,0.5,6.3,96,201.7,34,138.5,257.29,96
aiken_f5,2/1/95,,,,,0,,1.3,0,1.3,1.3,1,200.6,0,200.6,200.6,1
aiken_f5,12/14/95,0.2,0,0.11,0.25,56,10242,0.3,0.2,0,0.7,59,172.6,11.9,145.2,195.1,59
aiken_f5,12/15/95,0.2,0.1,0.11,0.31,96,16200,1.6,1.1,0.3,4.1,96,188.7,49.9,111.2,260.29,96
aiken_f5,12/16/95,0.2,0,0.11,0.31,79,13923,2,1.7,0.3,5.6,96,158.2,27.3,91.9,201.7,96
aiken_f5,12/17/95,0.1,0,0.06,0.25,25,3330,2,1.4,0.4,4.8,48,161.9,10.1,141.8,177.1,48
aiken_f5,12/18/95,0.1,0,0.06,0.17,26,3285,2.2,2.4,0.8,8.7,38,96.1,9.5,88.4,136.2,38
aiken_f5,12/19/95,0.1,0.1,0,0.25,57,6561,3.8,2.8,0.6,9,96,88.7,28.1,55,141.2,96
aiken_f5,12/20/95,0.2,0.1,0,0.25,66,11421,4.5,3,0.5,10.2,96,130.2,22.3,68.6,162.89,96
aiken_f5,12/21/95,0.2,0.1,0.06,0.25,96,15651,4.8,2.7,0.7,10.3,96,127.5,19.9,78,163.3,96
aiken_f5,12/22/95,0.1,0.1,0,0.25,96,10521,4.1,2.7,1.1,9.4,96,127.7,22,79.2,160.6,96
aiken_f5,12/23/95,0.2,0.1,0.06,0.31,96,16164,6.2,3.2,1.2,11.2,96,117.5,17.9,76.8,153.1,96
aiken_f5,12/24/95,12.6,14,0.11,31.8,96,1092474,6.3,3,0.9,10.8,96,135.3,20.6,110.6,225.39,96
aiken_f5,12/25/95,28.2,2.6,24.98,34.26,96,2432205,6.3,2.5,2.8,10.8,96,150.6,14.6,124.8,171.6,96
aiken_f5,12/26/95,26,3.1,21.44,30.78,96,2249802,4.8,1.9,1.8,7.8,96,171.5,1.4,169,174.89,96
aiken_f5,12/27/95,23.8,10.7,18.92,81.64,96,2056905,6.1,3.4,1,11.1,96,172.6,2,166.5,176.39,96
aiken_f5,12/28/95,57.5,21.1,37.24,102.48,96,4965336,6.3,3.3,1.9,12.1,96,167.9,2.3,162.3,173.1,96
aiken_f5,12/29/95,38.7,7.6,30.78,52.39,96,3347667,4.4,2.2,1.4,8.8,96,157.8,3.4,151.5,165.1,96
aiken_f5,12/30/95,23.1,5.5,15.57,34.26,96,1994148,5.5,3.7,0.7,10.7,96,155.8,2.1,151.3,160,96
aiken_f5,12/31/95,18.5,2.2,16.2,24.07,96,1595340,6.7,3.6,1.5,12.8,96,157.8,2.1,153.89,161.8,96
aiken_f5,1/1/96,21.6,3.7,10.31,26.87,96,1862001,2.7,1.1,0.4,5.4,96,154.4,3.6,145.6,160.7,96
aiken_f5,1/2/96,7.1,1.4,4.59,10.31,96,616824,2.7,2.2,0.4,7.2,96,162,8.2,149.6,174.39,96
aiken_f5,1/3/96,2.5,1,0.96,4.98,96,212958,3.9,3.1,0.6,9.6,96,176.1,5.4,167,185.8,96
aiken_f5,1/4/96,0.4,0.2,0.17,0.96,96,33813,3.6,2.7,0.7,8.5,96,197.3,6.9,184,214.6,96
aiken_f5,1/5/96,0.2,0,0.06,0.25,68,11007,3.2,2.1,0.8,7.5,96,236.3,15.9,192.7,256.29,96
aiken_f5,1/6/96,,,,,0,,1.5,0.1,1.4,1.7,5,253.2,0.8,252.7,254.6,5
aiken_f5,1/12/96,4.1,0.8,2.69,5.41,12,44505,1,0.4,0.3,1.6,12,305,58.3,245.1,436.2,12
aiken_f5,1/13/96,5.3,1.1,2.69,6.77,96,460359,2.6,2.2,0.3,6.8,96,192.3,19.3,177.39,247,96
aiken_f5,1/14/96,1.7,0.6,0.62,3.03,96,146727,4.1,3.2,0.4,9,96,197.6,8.5,185,215,96
aiken_f5,1/15/96,0.6,0.4,0.17,1.44,96,53091,2.6,2,0.4,6.4,96,209,14.1,191.1,253.2,96
aiken_f5,1/16/96,0.5,0.3,0.25,0.96,96,39609,4.5,3.4,0.4,10.2,96,210.9,13.3,193.8,240.39,96
aiken_f5,1/17/96,0.9,0.7,0.25,2.35,96,75357,4.9,4.2,0.4,12.2,96,207.1,13.6,185.8,232.5,96
aiken_f5,1/18/96,0.5,0.3,0.17,1.44,96,44667,4.1,3.2,0.4,9.8,96,203.7,12.9,184.7,240.1,96
aiken_f5,1/19/96,0.7,0.5,0.17,2.04,96,59184,4.4,3.4,0.5,10.1,96,202.5,28.6,171.9,258.39,96
aiken_f5,1/20/96,1,0.6,0.25,2.04,96,84114,3.7,3.2,0.4,8.9,96,190.3,14.6,176.9,233.8,96
aiken_f5,1/21/96,0.4,0.2,0.17,0.96,96,34686,3.4,2.7,0.4,8.6,96,190.5,9.4,176.6,207,96
aiken_f5,1/22/96,0.2,0.1,0,0.31,55,10413,4.3,2.8,0.6,9.3,96,208.8,25.4,147.3,249.5,96
aiken_f5,1/23/96,0.1,0.1,0,0.62,85,7659,4.2,2.9,0.7,10.1,87,218.3,17.3,170.9,247.3,87
aiken_f5,1/24/96,0,0,0,0,11,0,1.7,0.2,1.4,2.1,11,235,5.9,227,245,11
aiken_f5,2/5/96,5.7,1.2,0.62,8.24,80,413100,3.4,2.1,0.3,6.5,80,224.6,30.4,204.1,383.4,80
aiken_f5,2/6/96,2.6,0.9,1.44,4.59,96,227835,3.5,2.9,0.3,8.9,96,216.6,11.9,204.1,241.3,96
aiken_f5,2/7/96,3.3,2.5,0.31,8.72,96,283104,3.1,2.9,0.2,8.5,96,218.2,27.8,188.3,284.5,96
aiken_f5,2/8/96,2.9,2.3,0.62,8.24,96,251190,0.9,1,0.4,4.5,96,221.6,20.7,194.6,272.9,96
aiken_f5,2/9/96,2,1.7,0.17,5.41,96,171513,2.2,1.9,0.3,5.8,96,215.6,40.3,177.9,298.7,96
aiken_f5,2/10/96,0.6,0.7,0,2.04,78,43731,2.7,1.8,0.5,5.7,96,225.5,54.4,132.9,303.3,96
aiken_f5,2/11/96,0.2,0.7,0,6.31,88,18981,2.2,1.4,0.5,4.6,88,215.8,35,151,273.2,88
aiken_f5,12/19/96,55.5,25.7,6.31,99.39,94,4691835,3.8,2.8,0.8,9,94,187.5,24.3,142.5,284.7,94
aiken_f5,12/20/96,19.4,14.1,11.07,79.51,96,1677177,3.6,3,0.2,9.2,96,211.1,5.1,203.8,221,96
aiken_f5,12/21/96,9.6,2,5.27,13.08,96,830403,3.7,2.8,0.6,9.2,96,222.4,5.5,215.2,234.2,96
aiken_f5,12/22/96,3,1,1.81,5.27,96,255267,2.2,1.3,0.5,5.4,96,229.9,2.9,222.6,234.5,96
aiken_f5,12/23/96,1,0.3,0.62,1.47,96,85482,6.2,4.4,0.5,12.1,96,247.3,12.7,229.7,269.8,96
aiken_f5,12/24/96,2.3,1.8,0.88,7.42,96,200376,7.9,4.2,1.7,13.3,96,266.9,5,251.3,273.5,96
aiken_f5,12/25/96,23,6.3,7.42,37.89,96,1984788,8.2,3,4.2,13,96,224.3,9.3,215,250.5,96
aiken_f5,12/26/96,27.5,8.7,16.71,39.7,96,2380221,6.6,3.4,1.8,11.2,96,207.2,3.2,202,215.8,96
aiken_f5,12/27/96,19.6,5.2,9.8,31.15,96,1696284,5.1,2.6,1.6,11.8,96,205.8,5.6,195.1,216.5,96
aiken_f5,12/28/96,8.3,6.1,0.23,28.83,96,719766,1.8,1.1,0.4,3.9,96,208,9.1,189.3,221.3,96
aiken_f5,12/29/96,4.1,1.7,2.58,10.45,96,352404,7,4.6,0.4,14.3,96,223.1,8.7,214.3,243.9,96
aiken_f5,12/30/96,9.5,1.1,7.42,11.07,96,822339,6.5,3.5,0.7,12.5,96,231.8,5,223.6,243.5,96
aiken_f5,12/31/96,14,6.4,8.58,26.56,96,1211769,7.3,3.6,2.3,13.9,96,230.3,4.8,218.1,236.3,96
aiken_f5,1/1/97,21.7,2.7,17.44,26.56,96,1874754,7.7,3.2,2.8,12.7,96,219.1,4.2,211,227,96
aiken_f5,1/2/97,23.2,3.8,17.44,28.83,96,2007198,5.7,1.9,3.2,10.7,96,216.3,4.2,206.7,223.1,96
aiken_f5,1/3/97,13.5,4.3,6.85,19,96,1168506,5.3,3.9,0.4,11.7,96,224.9,4.3,215.3,233,96
aiken_f5,1/4/97,11.1,6.9,5.78,32.76,96,954846,7.4,3.6,1.7,12.9,96,231.2,4.2,221.7,237.6,96
aiken_f5,1/5/97,23.6,3.5,17.44,31.15,96,2037474,6,3.8,0.5,11.1,96,218.3,4.4,206.1,224.4,96
aiken_f5,1/6/97,23.3,2.7,19,27.69,96,2009466,6.6,3.5,1.9,12,96,208.8,3.9,199.4,214.4,96
aiken_f5,1/7/97,24.5,3.6,15.94,28.83,96,2117493,6.8,3.7,2.6,13.7,96,199.2,3.6,193.7,206.6,96
aiken_f5,1/8/97,20.3,6.7,5.78,29.99,96,1756062,0.9,0.4,0.3,2.4,96,195.9,3.5,191.6,211.9,96
aiken_f5,1/9/97,4.8,2.6,1.47,11.75,96,416547,0.5,0.3,0.3,1.4,96,208.3,24,171.6,237.7,96
aiken_f5,1/10/97,4.4,0.4,3.4,4.79,96,377784,5,3.8,0.3,10.5,96,185.6,8.6,173.9,200.8,96
aiken_f5,1/11/97,3,0.7,2.58,5.78,96,262683,6.2,3.3,1.2,11.8,96,203.7,12.4,182.3,221.9,96
aiken_f5,1/12/97,5.7,0.9,3.85,7.42,96,488484,0.6,0.2,0.3,1.3,96,210.6,14.8,186.3,226.8,96
aiken_f5,1/13/97,3.2,0.7,2.18,4.3,96,277785,3.8,2.7,0.4,8.3,96,191.6,11.8,174.8,212.8,96
aiken_f5,1/14/97,1.8,0.4,1.16,2.58,96,156123,4.9,3.3,0.4,10.3,96,212.8,7,196.6,222.9,96
aiken_f5,1/15/97,1.3,0.3,0.62,1.81,96,112041,5.4,3.3,0.6,12.1,96,225.5,3.1,220,230.7,96
aiken_f5,1/16/97,1.1,0.4,0.62,1.81,96,98514,4.9,3.1,0.4,10.1,96,229.8,4.8,222.6,238.6,96
aiken_f5,1/17/97,0.9,0.4,0.4,1.81,96,80496,4.4,3.2,0.4,9.9,96,237.6,21.8,209.5,289.9,96
aiken_f5,1/18/97,0.7,0.3,0.23,1.47,96,58968,4.7,2.9,0.7,9.1,96,243.4,12.3,221.1,275.6,96
aiken_f5,1/19/97,1.2,0.4,0.4,1.81,96,104940,2.8,2,0.2,6.9,96,238.7,16.8,219.6,283.4,96
aiken_f5,1/20/97,0.4,0.2,0,0.88,80,29943,3.6,2.5,0.4,7.7,80,238.3,5.2,231.9,251,80
aiken_f5,11/25/97,0.6,1.7,0,6.32,95,54459,4.2,4.4,-0.04,16.23,95,40.6,83.9,0,263.3,73
aiken_f5,11/26/97,28,14.9,0,49.54,96,2422422,4.8,3.4,0.32,9.48,96,183.6,10,163.8,205.7,96
aiken_f5,11/27/97,38,7,27.68,49.54,96,3284766,3.3,2.2,0.49,6.88,96,159.4,2.1,155.8,163.4,96
aiken_f5,11/28/97,16.7,6,8.58,28.81,96,1444662,1.7,1.4,0.29,4.05,96,160,5.9,152.8,183.8,96
aiken_f5,11/29/97,1.7,0.5,0.62,4.78,96,144189,0.6,0.2,0.36,0.88,96,220.3,15.5,186,256.1,96
aiken_f5,11/30/97,2,1.5,0,5.28,64,116244,1.2,0.6,0.51,2.54,96,217.6,70.9,121.9,328.6,96
aiken_f5,12/1/97,0.7,0.2,0.23,1.81,76,47196,3.9,2.5,0.52,9.75,96,189.1,18.1,148.4,224.9,96
aiken_f5,12/2/97,1.6,1.2,0.4,3.84,96,135513,4.5,3.1,0.8,10.54,96,196.1,6.3,183.3,206.3,96
aiken_f5,12/3/97,3.8,0.5,2.58,5.28,96,327762,2.9,2,0.39,6.83,96,160.3,10.3,149.1,183,96
aiken_f5,12/4/97,1.3,0.6,0.4,3.4,96,110358,3,2.1,0.36,7.3,96,173.4,14.5,148.4,207.4,96
aiken_f5,12/5/97,0.6,0.4,0,1.47,96,51021,3.4,1.8,0.52,6.54,96,197.7,26.1,148.2,246.8,96
aiken_f5,12/6/97,1.4,1.1,0.4,6.86,90,115488,3.3,3,0.37,11.25,96,195.9,29.4,170.1,282.5,96